Starlink 2364

operational
NORAD ID: 47904 Int'l Des: 2021-021 Owner: SPXS Country: US Constellation: starlink
LEOCIRCULAR

About Starlink 2364

Description loading...

Live Position

Loading 3D Globe...

Upcoming Passes

Altitude History

Altitude vs Time

uPlot chart will show altitude changes over time

Two-Line Element Set

1 47904U 21021AW 26102.00002315 .00027403 00000-0 89188-3 0 9995
2 47904 53.1585 100.5253 0001279 101.5443 147.4861 15.31689037 6084
Epoch: Apr 12, 2026 • Age: 6 hours

Current Status

Altitude 470.6 km
Velocity 7.63 km/s
Sub-Earth Point 8.87°N, 16.49°W
Launch Date Mar 14, 2021
Age 5 years
Type internet

Technical Details

Classification Payload
Mass 260.00 kg
Dry Mass 248.00 kg
Total Mass 260.00 kg
Length 0.20 m
Diameter 2.80 m
Span 9.00 m
Shape Box + pan
Manufacturer SPXS
Bus Type Starlink
Phase Status In Orbit
Owner/State SPXS/US

Large Constellations

Loading constellations...